Location: Newark
(58.9986°N, 38.5006°E)
Time: 21:56:55
(UTC+00:00)

N. Korean satellite - Pass Details

Date: 15 December 2019
Orbit: 454 x 508 km, 97.2° (Epoch: 17 January)

Event Time Altitude Azimuth Distance (km) Brightness Sun altitude
Rises 15:06:08 0° 196° (SSW) 2,596 10.7 -17.9°
Reaches altitude 10° 15:08:30 10° 210° (SSW) 1,710 9.9 -18.2°
Maximum altitude 15:11:36 25° 267° (W) 1,043 9.0 -18.6°
Drops below altitude 10° 15:14:40 10° 324° (NW) 1,700 9.6 -19.0°
Sets 15:17:01 0° 338° (NNW) 2,578 10.4 -19.3°
